Regional Weather Roundup
Issued by NWS

Home | Current Version | Previous Version | Text Only | Print | Product List | Glossary Off
Versions: 1 2 3 4 5 6 7 8 9 10 11 12 13 14 15 16 17 18 19 20 21 22 23 24 25 26 27 28 29 30 31 32 33 34 35 36 37 38 39 40 41 42 43 44 45 46 47 48 49 50

000
ASUS45 KPSR 182210
RWRAZ

ARIZONA REGIONAL HOURLY WEATHER ROUNDUP
NATIONAL WEATHER SERVICE PHOENIX AZ
300 PM MST SAT APR 18 2015

NOTE: FAIR INDICATES FEW OR NO CLOUDS BELOW 12,000 FEET WITH NO
SIGNIFICANT WEATHER AND/OR OBSTRUCTIONS TO VISIBILITY.

AZZ001>003-036-182300-
NORTHWEST ARIZONA

CITY           SKY/WX    TMP DP  RH WIND       PRES   REMARKS
BULLHEAD CITY  SUNNY     90  14   6 SE5       29.83F
KINGMAN        SUNNY     79  13   8 VRB5      29.95F
$$

AZZ004>008-015-016-018-182300-
NORTH CENTRAL ARIZONA

CITY           SKY/WX    TMP DP  RH WIND       PRES   REMARKS
GRAND CANYON   SUNNY     65  15  14 NW13G18   30.06F
WILLIAMS       SUNNY     64  10  12 NW17G26   30.13F
PRESCOTT       MOSUNNY   72  18  13 W12G23    30.01F
FLAGSTAFF      SUNNY     63   8  11 NW12G18   30.08F
PAYSON         MOSUNNY   70  12  11 W16G25    30.01F
PAGE           SUNNY     74  21  13 CALM      29.90F
$$

AZZ009>014-017-182300-
NORTHEAST ARIZONA

CITY           SKY/WX    TMP DP  RH WIND       PRES   REMARKS
WINSLOW        SUNNY     73  18  12 NW21G29   29.97F
SAINT JOHNS    CLOUDY    66  25  21 NW16G22   29.98F
WINDOW ROCK    MOSUNNY   59  21  23 N13G26    30.02F
SHOW LOW       PTSUNNY   61  16  17 NW15G24   30.04F
$$

AZZ023-182300-
GREATER PHOENIX AREA

CITY           SKY/WX    TMP DP  RH WIND       PRES   REMARKS
PHOENIX        MOSUNNY   87  17   7 W13       29.85F
BUCKEYE        SUNNY     90  18   7 W12G17    29.85F
GLENDALE       MOSUNNY   90  18   7 S9G20     29.86F
LUKE AFB       SUNNY     88  18   7 SW15      29.83F
DEER VALLEY    SUNNY     83  17   8 W6G17     29.86F
SCOTTSDALE     SUNNY     85  16   7 VRB6      29.89F
MESA-FALCON    SUNNY     88  12   6 W17       29.87F
MESA-GATEWAY   MOSUNNY   82  21  10 W10       29.90
CHANDLER       MOSUNNY   84  16   8 W13       29.87F
$$

AZZ027-028-182300-
SOUTHWEST MARICOPA COUNTY AND PINAL COUNTY

CITY           SKY/WX    TMP DP  RH WIND       PRES   REMARKS
CASA GRANDE    SUNNY     86  25  10 W8G22     29.87F
GILA BEND      FAIR      90  13   6 W9G17     29.84F
$$

AZZ503-504-507>509-182300-
SOUTHEAST ARIZONA

CITY           SKY/WX    TMP DP  RH WIND       PRES   REMARKS
TUCSON         SUNNY     81  15   8 N10G18    29.96F
DAVIS-MONTHAN  SUNNY     79  16   9 NW15G24   29.94F
RYAN FIELD       N/A     81  19  10 N10G18    29.95F
NOGALES        SUNNY     77  20  12 VRB5      30.00F
SIERRA VISTA   SUNNY     71  15  12 NW12G23   30.03F
DOUGLAS        SUNNY     75  22  13 NW17G28   29.99F
SAFFORD        SUNNY     80  19  10 NW21G31   29.89F
$$

AZZ020-021-025-026-031-182300-
SOUTHWEST ARIZONA

CITY           SKY/WX    TMP DP  RH WIND       PRES   REMARKS
YUMA           SUNNY     91  29  11 SW9       29.86F
$$

CAZ031-033-041-043-047-048-061-182300-
SOUTHERN CALIFORNIA

CITY           SKY/WX    TMP DP  RH WIND       PRES   REMARKS
DOWNTOWN L.A.  SUNNY     75  47  36 VRB7      29.94F
L.A. AIRPORT   SUNNY     68  55  63 W14       29.96F
SAN DIEGO      SUNNY     75  47  36 W7        29.97F
BURBANK        SUNNY     79  38  22 S10       29.94F
ONTARIO        SUNNY     81  34  18 SW12      29.94F
RIVERSIDE      SUNNY     83  31  15 W13G18    29.93F
PALM SPRINGS   SUNNY     94  13   5 VRB6      29.85F
EL CENTRO NAS  FAIR      92  16   6 SE7       29.82F
IMPERIAL       SUNNY     92  24   8 E5        29.82F
BLYTHE         SUNNY     94  20   7 W9        29.82F
NEEDLES        SUNNY     93  10   4 E13       29.83F
$$

NVZ020-UTZ003-182300-
SOUTHERN NEVADA-UTAH

CITY           SKY/WX    TMP DP  RH WIND       PRES   REMARKS
LAS VEGAS      MOSUNNY   85  15   7 S8        29.85F
SALT LAKE CITY MOSUNNY   65  32  29 NW14G20   29.99F
$$

NMZ009-TXZ055-182300-
NEW MEXICO-WEST TEXAS

CITY           SKY/WX    TMP DP  RH WIND       PRES   REMARKS
ALBUQUERQUE    MOSUNNY   63  22  20 NW14G24   29.92F
EL PASO        MOSUNNY   75  19  12 W18G28    29.89F
$$


........................KEY........................
SKY/WX - SKY CONDITION/WEATHER
TMP    - TEMPERATURE IN FAHRENHEIT
DP     - DEW POINT IN FAHRENHEIT
RH     - RELATIVE HUMIDITY IN PERCENT
WIND   - DIRECTION AND SPEED IN MILES PER HOUR (MPH)
VRB    - VARIABLE WIND DIRECTION
PRES   - MEAN SEA LEVEL PRESSURE IN INCHES OF MERCURY
         F - FALLING PRESSURE   R - RISING PRESSURE
         S - STEADY PRESSURE
VSB    - VISIBILITY IN MILES
HX     - HEAT INDEX IN FAHRENHEIT
WCI    - WIND CHILL INDEX IN FAHRENHEIT
TC     - TEMPERATURE IN CELSIUS WHICH IS ALSO KNOWN AS
         TEMPERATURE IN CENTIGRADE
AFB    - AIR FORCE BASE
         LUKE AFB IS LUKE AIR FORCE BASE
         DAVIS-MONTHAN IS DAVIS-MONTHAN AIR FORCE BASE
NAS    - NAVAL AIR STATION
         EL CENTRO NAS IS EL CENTRO NAVAL AIR STATION
N/A    - NOT AVAILABLE



USA.gov is the U.S. government's official web portal to all federal, state and local government web resources and services.